Regional Weather Roundup
Issued by NWS

Home | Current Version | Previous Version | Text Only | Print | Product List | Glossary Off
Versions: 1 2 3 4 5 6 7 8 9 10 11 12 13 14 15 16 17 18 19 20 21 22 23 24 25 26 27 28 29 30 31 32 33 34 35 36 37 38 39 40 41 42 43 44 45 46 47 48 49 50

000
ASUS45 KSLC 100310
RWRUT

UTAH REGIONAL WEATHER ROUNDUP
NATIONAL WEATHER SERVICE SALT LAKE CITY UT
800 PM MST TUE FEB 09 2016

UTZ001>011-023>025-100400-

NORTHERN UTAH

CITY           SKY/WX    TMP DP  RH WIND       PRES   REMARKS
BRIGHAM CITY   PTCLDY    22  19  88 CALM      30.51S
HILL AFB       CLEAR     30  22  73 NE1       30.48S
LOGAN          FOG        9   7  92 N3        30.51S VSB 3/4
OGDEN          PTCLDY    28  24  85 CALM      30.48F
PROVO AIRPORT  CLEAR     23  19  86 CALM      30.51S HAZE
SALT LAKE CITY CLEAR     32  27  81 N6        30.49F HAZE    WCI  26
VERNAL         CLOUDY    18  13  80 CALM      30.50S HAZE
WENDOVER       CLOUDY    32  28  86 S3        30.50F
HEBER CITY     PTCLDY    16  12  86 CALM      30.47S
WEST JORDAN    CLEAR     30  27  86 S3        30.49F

$$

UTZ012>022-026-027-100400-

SOUTHERN/CENTRAL UTAH

CITY           SKY/WX    TMP DP  RH WIND       PRES   REMARKS
BLANDING       CLEAR     35  25  67 N6        30.47S WCI  30
BRYCE CANYON   PTCLDY    23  16  74 W6        30.49R WCI  16
CEDAR CITY     PTCLDY    29  23  78 SE3       30.45R
DELTA            N/A     18  17  96 CALM      30.50S VSB 1/2
HANKSVILLE     CLEAR     32  28  86 NW5       30.48S WCI  27
MILFORD        PTCLDY    20  17  88 NW6       30.48S WCI  12
MOAB/CYNLANDS  CLEAR     26  22  84 CALM      30.45R
PRICE          CLEAR     27  20  75 NE9       30.45S WCI  18
ST GEORGE      PTCLDY    52  27  37 CALM      30.36R
KANAB          CLEAR     45  27  49 N12       30.42

$$

REGIONAL REPORTS     COLORADO/ARIZONA

CITY           SKY/WX    TMP DP  RH WIND       PRES   REMARKS
CRAIG, CO      CLOUDY     6   4  91 CALM      30.48S
GRAND JUNCTION CLOUDY    28  23  81 E6        30.45S WCI  22
RIFLE          CLOUDY    27  18  69 CALM      30.48R
MONTROSE       CLOUDY    27  21  78 SE8       30.48S WCI  19
CORTEZ         CLOUDY    30  22  72 E6        30.39S WCI  24
PAGE, AZ       CLEAR     43  26  51 SW5       30.40S
GRAND CANYON   CLEAR     29  21  72 E3        30.44R
KINGMAN        CLEAR     53  23  31 E9        30.28R
FLAGSTAFF      CLEAR     34  14  43 CALM      30.43R

$$

REGIONAL REPORTS    NEVADA/IDAHO/WYOMING

CITY           SKY/WX    TMP DP  RH WIND       PRES   REMARKS
LAS VEGAS, NV  CLEAR     63  28  26 SW3       30.23S
ELY            PTCLDY    20  15  81 S14       30.44F WCI   7
ELKO           MOCLDY    22  17  81 E6        30.45S WCI  14
POCATELLO, ID  CLOUDY    22  20  92 N5        30.47F WCI  16
BURLEY         CLEAR     30  26  85 NE10      30.40F WCI  21
EVANSTON, WY   CLOUDY    31  22  69 S5        30.46F WCI  26
ROCK SPRINGS   CLOUDY    35  23  61 SW12      30.40F WCI  27

$$



USA.gov is the U.S. government's official web portal to all federal, state and local government web resources and services.